[Iaude] MPEC L15: 2024 KY1 [a=1.65,e=0.51,i=6.7,H=24.9]
    mpec at cfa.harvard.edu 
    mpec at cfa.harvard.edu
       
    Sat Jun  1 19:53:48 EDT 2024
    
    
  
M.P.E.C. 2024-L15                                  Issued 2024 June 1, 23:52 UT
     The Minor Planet Electronic Circulars contain information on unusual
         minor planets, routine data on comets and natural satellites,
         and occasional editorial announcements.  They are published
    on behalf of Division F of the International Astronomical Union by the
          Minor Planet Center, Smithsonian Astrophysical Observatory,
                          Cambridge, MA 02138, U.S.A.
			  
             Prepared using the Tamkin Foundation Computer Network
                              MPC at CFA.HARVARD.EDU
            URL https://www.minorplanetcenter.net/    ISSN 1523-6714
                                    2024 KY1                                    
Observations:
     K24K01Y* C2024 05 30.39652215 49 02.459-08 01 44.30         21.99wXEL015F52
     K24K01Y  C2024 05 30.40906615 48 59.709-08 01 45.38         21.99wXEL015F52
     K24K01Y  C2024 05 30.42154315 48 56.982-08 01 46.44         21.73wXEL015F52
     K24K01Y KC2024 05 31.18023015 46 24.07 -08 03 14.6          22.4 GVEL015H21
     K24K01Y KC2024 05 31.18311815 46 23.46 -08 03 15.3          22.1 GVEL015H21
     K24K01Y KC2024 05 31.18600715 46 22.85 -08 03 15.5          22.0 GVEL015H21
     K24K01Y  C2024 05 31.25623815 46 07.703-08 03 19.45         21.3 GVEL015H01
     K24K01Y  C2024 05 31.26087015 46 06.616-08 03 20.10         21.8 GVEL015H01
     K24K01Y  C2024 05 31.27049515 46 04.380-08 03 21.18         21.9 GVEL015H01
     K24K01Y KC2024 05 31.28304415 46 01.654-08 03 21.46         21.76GVEL015V06
     K24K01Y  C2024 05 31.28326815 46 01.393-08 03 22.53         22.1 GVEL015H01
     K24K01Y KC2024 05 31.28459615 46 01.304-08 03 21.38         21.63GVEL015V06
     K24K01Y KC2024 05 31.28614815 46 00.934-08 03 21.64         21.96GVEL015V06
     K24K01Y  C2024 06 01.37199215 41 56.478-08 05 46.95         21.4 GVEL015H01
     K24K01Y  C2024 06 01.37617715 41 55.433-08 05 47.52         21.3 GVEL015H01
     K24K01Y  C2024 06 01.39089315 41 51.738-08 05 49.20         21.8 GVEL015H01
     K24K01Y  C2024 06 01.39661515 41 50.309-08 05 49.84         21.2 GVEL015H01
Observer details:
F52 Pan-STARRS 2, Haleakala.  Observers J. Herman, T. Lowe, P. Minguez, A.
    Schultz, I. Smith.  Measurers K. Chambers, T. de Boer, J. Fairlamb, H.
    Gao, M. Huber, C.-C. Lin, E. Magnier, Y. Ramanjooloo, R. Wainscoat, R.
    Weryk.  1.8-m Ritchey-Chretien + CCD.
H01 Magdalena Ridge Observatory, Socorro.  Observers W. H. Ryan, E. V. Ryan.
    Measurer W. H. Ryan.  2.4-m f/8.9 Ritchey-Chretien + CCD.
H21 Astronomical Research Observatory, Westfield.  Observer R. Holmes.
    Measurers T. Linder, R. Holmes, L. Horn.  1.3-m f/4.0 astrograph + CCD.
V06 Catalina Sky Survey-Kuiper.  Observer V. F. Carvajal.  Measurers T.
    Beuden, V. F. Carvajal, D. Fay, J. B. Fazekas, D. C. Fuls, A. R. Gibbs, A.
    D. Grauer, H. Groeller, J. K. Hogan, R. A. Kowalski, S. M. Larson, G. J.
    Leonard, D. Rankin, R. L. Seaman, F. C. Shelly, K. W. Wierzchos.  1.55-m
    reflector + 1K CCD.
Orbital elements:
2024 KY1                                                 Earth MOID = 0.0084 AU
Epoch 2024 Mar. 31.0 TT = JDT 2460400.5                 Veres                   
M 300.89841              (2000.0)            P               Q                  
n   0.46628637     Peri.  250.95832     +0.87608914     +0.46828169             
a   1.6470277      Node    80.97712     -0.38701344     +0.82500668             
e   0.5091057      Incl.    6.67532     -0.28755595     +0.31634827             
P   2.11           H   24.98          G   0.15           U   9                  
Residuals in seconds of arc
240530 F52  0.2+  0.1+    240531 H01  0.2+  0.1+    240531 V06  0.0   0.0
240530 F52  0.0   0.1+    240531 H01  0.1+  0.1-    240601 H01  0.1-  0.0
240530 F52  0.1-  0.0     240531 H01  0.1+  0.0     240601 H01  0.0   0.1-
240531 H21 (0.9-  0.3+)   240531 V06  0.0   0.1-    240601 H01  0.0   0.0
240531 H21  0.1-  0.1-    240531 H01  0.2-  0.0     240601 H01  0.0   0.1+
240531 H21 (0.7+  0.1+)   240531 V06  0.2+  0.1+
Ephemeris:
2024 KY1                 a,e,i = 1.65, 0.51, 7                   q = 0.8085
Date    TT    R. A. (2000) Decl.     Delta      r    Elong.  Phase     V
2024 05 02    16 23 22.4 -09 10 02   0.4101  1.3867   153.4    19.0    24.7
...
2024 05 17    16 15 16.7 -08 16 47   0.2649  1.2694   165.4    11.6    23.3
...
2024 05 25    16 03 04.7 -08 00 40   0.1974  1.2060   167.0    10.9    22.5
...
2024 05 31    15 47 01.2 -08 02 13   0.1508  1.1585   162.4    15.4    22.0
2024 06 01    15 43 24.9 -08 04 13   0.1434  1.1506   161.1    16.6    22.0
2024 06 02    15 39 26.8 -08 06 51   0.1361  1.1428   159.7    17.9    21.9
...
2024 06 08    15 04 10.1 -08 39 57   0.09435 1.0960   147.7    29.6    21.3
...
2024 06 16    12 55 51.6 -09 58 42   0.04974 1.0352   111.6    65.8    20.9
...
2024 07 01    06 33 41.8 +01 23 07   0.09260 0.9313    21.8   156.1    29.4
M. P. C. Staff               (C) Copyright 2024 MPC           M.P.E.C. 2024-L15
    
    
More information about the Iaude
mailing list